This demonstration page uses our WeatherBlox Daily Observations layout. Learn more.

Left ArrowRight Arrow

Hourly Observations for April 11, 2018

Temp ( °F °C ) Dew Point ( °F °C ) Humidity (%) Winds ( mph kmh ) Pressure ( in mb ) Visibility ( mi km ) Precip ( " mm )
12:51 am 00:51 Clear 60 15.6 20 -6.7 21 21 ENE 7 11 29.88 1012 10 16 0.00 0.00
1:51 am 01:51 Clear 60 15.6 21 -6.1 22 22 S 3 6 29.88 1012 10 16 0.00 0.00
2:51 am 02:51 Clear 56 13.3 20 -6.7 24 24 WSW 5 7 29.87 1012 10 16 0.00 0.00
3:51 am 03:51 Clear 53 11.7 20 -6.7 27 27 NW 6 9 29.88 1012 10 16 0.00 0.00
4:51 am 04:51 Clear 53 11.7 21 -6.1 28 28 NNE 8 13 29.88 1012 10 16 0.00 0.00
5:51 am 05:51 Clear 52 11.1 21 -6.1 30 30 NE 3 6 29.89 1012 10 16 0.00 0.00
6:51 am 06:51 Sunny 57 13.9 22 -5.6 26 26 S 3 6 29.92 1013 10 16 0.00 0.00
7:51 am 07:51 Sunny 67 19.4 23 -5 19 19 Calm 29.93 1013 10 16 0.00 0.00
8:51 am 08:51 Sunny 72 22.2 22 -5.6 15 15 Calm 29.92 1013 10 16 0.00 0.00
9:51 am 09:51 Sunny 78 25.6 22 -5.6 12 12 Calm 29.90 1013 10 16 0.00 0.00
10:51 am 10:51 Sunny 82 27.8 21 -6.1 10 10 S 3 6 29.89 1012 10 16 0.00 0.00
11:51 am 11:51 Sunny 87 30.6 17 -8.3 7 7 WNW 6 9 29.87 1012 10 16 0.00 0.00
12:51 pm 12:51 Sunny 89 31.7 14 -10 6 6 WSW 13 20 29.83 1010 10 16 0.00 0.00
1:51 pm 13:51 Sunny 91 32.8 14 -10 6 6 VRB 6 9 29.80 1009 10 16 0.00 0.00
2:51 pm 14:51 Sunny with Light Rain 94 34.4 9 -12.8 4 4 NW 12 19 29.77 1008 10 16 0.00 0.03
3:51 pm 15:51 Sunny with Light Rain 93 33.9 7 -13.9 4 4 WNW 21 33 29.75 1007 10 16 0.00 0.03
4:51 pm 16:51 Sunny 90 32.2 4 -15.6 4 4 NW 21 33 29.75 1007 10 16 0.00 0.03
5:51 pm 17:51 Sunny 87 30.6 5 -15 4 4 NW 22 35 29.75 1008 10 16 0.00 0.00
6:51 pm 18:51 Clear 83 28.3 8 -13.3 6 6 NW 15 24 29.75 1008 10 16 0.00 0.00
7:51 pm 19:51 Clear 80 26.7 10 -12.2 7 7 NNW 13 20 29.76 1008 10 16 0.00 0.00
8:51 pm 20:51 Clear 74 23.3 11 -11.7 9 9 W 9 15 29.78 1008 10 16 0.00 0.00
9:51 pm 21:51 Clear 72 22.2 12 -11.1 10 10 WNW 12 19 29.78 1008 10 16 0.00 0.00
10:51 pm 22:51 Clear 72 22.2 10 -12.2 9 9 NW 12 19 29.76 1008 10 16 0.00 0.00
11:51 pm 23:51 Clear 74 23.3 7 -13.9 7 7 NW 13 20 29.75 1007 10 16 0.00 0.00

Powered by AerisWeather